Temp
63 56 50 56 57 60 58 55 55 63 70 62 66 62 67 73 69 68 67 71 71 72 73 73 74 74 74 74 73 72 71 71 73 75 74 69 71 74 75 76 76 76 77 76
57 51 62 64 64 61 59 56 55 62 68 63 62 63 66 67 67 71 67 71 72 70 72 74 73 72 71 70 71 73 73 72 73 79 76 70 70 73 76 76 76 76 76 75
53 61 69 66 63 61 61 55 58 58 66 63 60 57 62 69 70 69 69 70 71 71 70 71 71 69 71 70 69 70 70 73 74 75 73 73 72 73 73 74 73 74 75 75
57 65 66 63 61 62 52 65 64 63 56 49 59 47 51 63 64 65 64 69 67 69 70 70 69 68 70 70 71 70 70 71 74 74 74 74 72 72 74 75 72 74 73 72
58 61 60 60 62 66 60 67 63 64 55 49 52 46 52 57 54 52 63 67 68 69 69 68 69 69 70 71 69 69 70 69 71 71 70 71 71 71 73 73 73 71 70 71
61 69 65 61 66 66 66 60 58 55 49 43 49 48 42 43 47 50 63 66 67 66 66 66 68 69 69 69 69 70 69 65 67 71 72 70 67 69 69 69 69 72 70 69
57 59 64 68 58 62 57 48 38 38 40 39 50 47 41 49 50 51 53 55 59 62 63 63 63 65 66 65 66 69 68 65 66 69 71 67 68 68 66 67 68 68 68 69
44 44 57 64 57 51 52 47 38 28 31 38 51 43 42 53 55 54 54 55 56 60 61 66 67 67 65 65 64 64 64 64 65 66 66 67 69 70 68 66 67 69 68 70
42 46 62 64 62 57 50 43 52 42 43 36 42 46 50 52 52 53 53 53 54 58 62 64 66 66 63 63 62 63 63 62 62 63 63 63 63 65 66 66 67 66 67 68
47 40 56 60 60 56 51 54 39 35 28 30 38 42 42 46 47 50 51 52 53 54 56 62 64 67 63 62 63 64 62 61 62 62 62 62 62 63 62 62 63 65 65 67
47 43 45 53 49 47 45 42 43 40 37 32 31 36 46 47 48 48 49 51 52 54 56 58 59 63 64 66 66 65 62 61 60 60 60 61 61 62 62 61 60 62 64 64
48 41 35 42 51 55 47 42 41 35 34 36 37 37 51 49 49 51 50 51 52 53 54 55 56 60 62 60 64 63 62 62 61 60 60 59 59 60 60 60 61 60 61 64
47 37 29 35 43 48 45 46 45 42 39 34 32 37 50 52 50 52 51 52 53 53 53 53 55 59 60 61 63 62 61 59 59 60 58 59 58 58 59 59 60 61 60 61
53 39 36 29 36 42 41 47 47 41 35 37 37 40 47 48 48 49 51 53 53 54 55 55 58 57 59 60 60 61 61 61 59 59 57 56 56 56 57 58 60 60 61 60
45 36 40 43 47 48 47 47 49 43 45 40 46 44 50 51 49 49 53 53 56 57 58 59 56 56 57 57 58 58 57 58 57 57 57 56 56 57 58 58 60 61 60 61
43 36 39 38 47 47 44 48 49 49 51 48 49 47 55 53 53 53 57 56 57 58 58 58 58 57 56 56 56 57 57 57 55 55 55 57 56 57 56 57 57 58 58 59
39 36 32 29 42 42 35 44 49 50 47 47 42 49 51 49 50 51 52 54 54 54 54 55 55 54 54 54 55 54 54 55 55 56 56 57 56 56 55 56 56 56 56 55
39 35 32 29 34 24 41 53 54 46 47 48 50 51 51 49 48 50 52 52 53 53 53 54 53 53 53 53 54 54 55 54 54 53 55 56 56 56 55 54 53 53 53 53
45 36 31 26 27 36 45 49 49 45 42 49 48 50 51 52 52 48 53 53 51 50 51 50 51 51 50 51 53 53 52 51 52 53 53 55 54 53 53 52 50 50 51 52
45 43 36 28 24 22 38 51 56 53 33 49 50 48 47 49 38 42 49 52 51 51 52 51 51 52 50 50 50 49 50 49 50 52 53 54 53 52 51 50 49 49 50 52
34 34 30 24 24 33 46 53 57 37 34 48 48 47 45 42 43 47 49 50 50 51 51 51 48 49 49 49 48 48 48 47 51 53 53 53 52 51 51 49 48 48 48 50
35 30 30 28 25 26 49 50 40 41 44 48 47 45 46 47 50 48 48 47 48 47 50 51 48 48 49 49 47 47 46 50 51 51 51 51 50 52 55 49 49 48 47 47
33 36 33 33 33 43 46 44 48 49 48 47 47 46 47 46 46 47 46 45 47 49 49 50 47 47 48 49 49 47 48 50 50 49 49 49 50 50 50 48 47 47 47 46
43 47 35 37 42 46 46 47 51 50 51 52 52 48 47 44 45 45 45 45 45 47 47 49 52 51 50 49 51 49 53 51 49 47 47 47 47 47 47 48 47 46 46 45
40 42 39 37 43 46 50 50 51 51 53 52 51 48 47 46 44 43 44 45 45 46 47 47 47 50 51 52 53 53 52 49 47 47 47 46 46 46 46 46 46 47 47 46
41 40 33 32 45 42 44 50 53 50 49 49 48 46 46 45 44 44 43 43 43 44 44 44 45 47 50 51 48 49 51 49 47 46 46 45 45 45 45 44 45 46 44 43
MSLP
1010.19 1011.27 1011.77 1011.89 1012.00 1011.89 1011.90 1011.54 1010.83 1009.27 1008.11 1008.10 1007.06 1006.44 1005.07 1004.32 1004.93 1005.24 1005.50 1006.26 1006.92 1007.40 1008.37 1008.84 1009.27 1009.62 1010.19 1009.75 1009.32 1009.50 1009.91 1010.37 1010.33 1010.51 1011.54 1012.46 1012.34 1012.24 1012.33 1012.32 1012.31 1012.60 1012.92 1013.07
1011.10 1011.45 1011.03 1011.16 1011.21 1011.40 1011.24 1011.02 1010.19 1008.96 1007.80 1007.82 1007.13 1006.66 1005.49 1005.15 1005.00 1005.19 1006.03 1006.55 1007.02 1007.84 1008.48 1008.88 1009.83 1010.47 1010.75 1010.61 1009.48 1009.67 1009.66 1009.78 1009.74 1010.23 1011.43 1012.05 1012.19 1011.84 1011.73 1011.66 1011.64 1011.90 1012.33 1012.50
1011.18 1010.81 1010.42 1010.76 1010.61 1010.63 1010.40 1010.37 1009.66 1008.92 1007.80 1007.45 1007.43 1007.18 1006.72 1005.85 1005.50 1005.52 1006.24 1007.16 1007.38 1007.56 1008.17 1009.07 1009.72 1010.19 1010.17 1010.46 1010.59 1010.26 1009.94 1009.99 1010.20 1010.33 1010.75 1011.37 1011.96 1012.22 1012.02 1011.98 1011.93 1011.92 1011.90 1012.14
1010.65 1010.13 1010.21 1010.18 1010.22 1009.99 1009.98 1009.35 1009.03 1008.84 1008.69 1008.35 1008.05 1008.18 1008.01 1007.40 1007.09 1007.52 1007.28 1007.04 1007.71 1008.22 1008.57 1008.71 1009.22 1009.77 1010.07 1010.44 1010.39 1010.24 1010.63 1010.34 1010.57 1010.94 1011.08 1011.31 1011.77 1012.11 1011.92 1011.75 1011.87 1011.78 1011.85 1012.04
1010.58 1010.23 1010.12 1010.09 1009.95 1009.73 1009.68 1009.06 1009.13 1009.12 1009.14 1009.15 1009.03 1010.01 1009.18 1009.37 1009.77 1010.65 1009.55 1008.36 1008.50 1008.90 1009.12 1009.76 1010.05 1010.21 1010.56 1010.56 1010.70 1010.97 1011.16 1011.43 1011.64 1011.47 1011.80 1011.88 1012.26 1012.31 1012.27 1012.37 1012.04 1012.01 1012.25 1011.95
1010.71 1009.87 1010.18 1010.26 1009.94 1010.02 1009.90 1009.62 1009.41 1009.59 1010.31 1010.43 1009.96 1011.08 1012.92 1013.37 1013.75 1012.53 1010.50 1010.50 1010.54 1010.26 1010.43 1010.67 1010.93 1011.03 1011.22 1011.34 1011.28 1011.30 1011.65 1012.12 1012.09 1011.90 1012.12 1012.45 1012.52 1012.53 1012.63 1012.73 1012.56 1012.32 1012.44 1012.52
1011.44 1011.11 1010.76 1010.74 1010.63 1010.49 1010.90 1011.66 1012.11 1012.02 1012.18 1011.63 1011.28 1012.35 1014.84 1015.10 1015.04 1014.39 1013.52 1013.16 1012.78 1012.56 1011.97 1011.97 1011.79 1011.79 1011.93 1011.90 1012.10 1011.89 1011.93 1012.68 1012.73 1012.57 1012.48 1012.95 1012.94 1012.97 1012.92 1013.00 1012.97 1012.90 1012.61 1012.64
1013.21 1012.64 1012.28 1012.13 1012.29 1012.46 1012.74 1013.48 1014.56 1015.13 1015.30 1014.52 1013.20 1013.57 1015.26 1015.59 1015.15 1014.70 1015.31 1014.95 1014.12 1014.04 1013.22 1012.74 1012.70 1012.78 1012.92 1013.27 1013.33 1013.07 1012.54 1012.89 1013.22 1013.27 1013.57 1013.55 1013.31 1013.22 1013.29 1013.42 1013.39 1013.33 1013.22 1012.96
1014.50 1013.89 1012.88 1012.72 1012.81 1013.22 1013.65 1014.44 1015.06 1015.84 1016.68 1016.86 1015.49 1014.65 1015.53 1015.80 1014.96 1015.12 1015.83 1015.82 1016.14 1015.71 1014.76 1014.29 1013.76 1014.01 1014.39 1014.42 1014.18 1013.78 1013.60 1013.80 1014.49 1014.61 1014.53 1014.43 1014.25 1013.97 1013.89 1013.77 1013.62 1013.43 1013.26 1013.01
1015.46 1015.09 1014.32 1013.78 1013.72 1014.27 1014.78 1015.49 1016.55 1018.09 1018.30 1017.80 1016.99 1014.69 1014.66 1015.70 1015.63 1015.36 1016.55 1017.70 1017.59 1017.27 1015.63 1014.89 1014.62 1014.79 1015.19 1014.95 1014.88 1014.49 1014.69 1014.93 1015.47 1015.48 1015.13 1015.01 1014.84 1014.47 1014.15 1013.82 1013.56 1013.33 1013.08 1012.64
1015.79 1016.37 1016.06 1015.34 1015.27 1015.18 1015.69 1016.65 1018.03 1019.04 1019.22 1018.28 1017.09 1015.42 1014.88 1015.14 1015.48 1015.67 1016.72 1016.93 1018.03 1019.14 1016.45 1016.00 1016.08 1015.47 1015.49 1015.44 1015.07 1015.47 1015.94 1015.87 1016.24 1016.34 1015.97 1015.51 1015.31 1014.96 1014.56 1014.18 1013.92 1013.61 1013.23 1012.96
1016.32 1017.17 1017.68 1017.16 1016.56 1015.79 1016.69 1017.49 1018.20 1018.96 1018.99 1018.62 1017.93 1015.48 1015.00 1015.50 1015.56 1015.25 1015.05 1015.96 1018.08 1018.42 1017.04 1017.67 1017.90 1017.00 1016.27 1016.47 1016.28 1015.62 1016.10 1016.75 1016.91 1016.67 1016.37 1016.10 1015.84 1015.38 1015.12 1014.58 1014.08 1013.71 1013.46 1013.04
1016.54 1017.95 1018.55 1018.27 1017.83 1017.10 1017.10 1017.57 1017.79 1018.43 1018.94 1018.68 1018.00 1016.91 1016.51 1016.31 1015.08 1015.49 1016.06 1016.87 1017.69 1017.30 1018.14 1017.34 1017.98 1017.87 1017.06 1016.60 1015.76 1016.39 1016.60 1016.83 1016.84 1017.02 1017.02 1016.64 1016.26 1015.73 1015.50 1014.89 1014.27 1013.87 1013.53 1013.28
1016.69 1018.43 1019.12 1019.24 1018.66 1018.02 1017.43 1017.13 1017.16 1017.54 1017.92 1017.29 1016.63 1015.64 1015.37 1016.25 1015.38 1015.76 1016.49 1017.07 1017.08 1016.85 1016.98 1018.10 1018.07 1016.20 1017.26 1016.92 1016.63 1016.78 1017.42 1017.35 1017.39 1017.43 1016.93 1017.19 1016.52 1016.18 1015.70 1015.09 1014.40 1013.97 1013.52 1013.23
1017.89 1018.87 1019.09 1018.91 1018.37 1017.65 1016.98 1016.45 1016.10 1016.17 1015.92 1016.11 1015.09 1015.29 1014.12 1013.95 1014.93 1015.21 1015.54 1015.70 1015.59 1016.00 1016.78 1017.17 1016.91 1017.03 1017.54 1017.34 1017.43 1017.78 1017.51 1017.39 1017.62 1017.33 1017.05 1016.96 1016.52 1015.96 1015.43 1015.05 1014.54 1014.06 1013.54 1013.06
1018.70 1019.15 1019.22 1019.10 1018.38 1017.58 1016.75 1015.81 1015.05 1014.84 1014.46 1014.47 1014.03 1013.69 1012.90 1013.31 1014.55 1015.45 1015.50 1015.42 1016.03 1016.62 1016.84 1017.10 1016.96 1017.27 1017.88 1018.08 1017.92 1017.70 1017.28 1017.41 1017.57 1017.43 1017.33 1017.00 1016.59 1015.97 1015.81 1015.32 1014.69 1014.30 1013.87 1013.36
1019.25 1019.66 1020.13 1019.67 1018.75 1017.71 1016.50 1015.33 1014.45 1014.23 1014.48 1014.09 1013.82 1013.14 1013.09 1014.41 1015.25 1015.64 1015.76 1016.38 1016.65 1016.81 1016.87 1017.08 1017.69 1018.17 1018.01 1017.78 1017.62 1017.43 1017.35 1017.51 1017.79 1017.69 1017.38 1017.08 1016.58 1016.06 1015.74 1015.47 1015.19 1014.68 1014.28 1013.74
1019.08 1019.95 1020.41 1020.47 1019.46 1018.20 1016.00 1014.84 1014.62 1014.90 1015.04 1014.30 1013.75 1013.75 1014.34 1015.03 1015.87 1016.06 1016.42 1016.70 1017.13 1017.07 1017.28 1017.54 1017.50 1017.31 1017.40 1017.44 1017.27 1017.23 1017.19 1017.38 1017.32 1017.05 1016.93 1016.67 1016.17 1015.92 1015.71 1015.65 1015.55 1015.08 1014.56 1014.16
1018.20 1019.68 1020.68 1020.94 1020.35 1018.59 1016.16 1015.19 1014.72 1014.69 1015.75 1015.53 1015.17 1015.39 1015.58 1015.89 1016.22 1017.17 1017.03 1016.96 1017.13 1017.26 1017.43 1017.77 1017.95 1018.01 1017.96 1017.83 1017.64 1017.52 1017.32 1017.09 1016.82 1016.46 1016.27 1016.08 1015.89 1015.73 1015.63 1015.33 1015.23 1015.04 1014.75 1014.29
1017.87 1018.82 1020.32 1021.28 1020.84 1019.24 1016.83 1015.25 1014.62 1014.65 1016.06 1016.05 1015.99 1016.31 1016.30 1016.21 1017.10 1017.59 1017.19 1016.97 1017.12 1017.25 1017.37 1017.64 1017.92 1018.11 1018.33 1018.39 1018.44 1018.11 1017.66 1017.15 1016.86 1016.50 1016.33 1016.04 1015.70 1015.57 1015.55 1015.43 1015.10 1014.68 1014.39 1013.98
1018.59 1019.51 1020.30 1020.80 1020.51 1018.74 1016.63 1015.58 1014.89 1015.77 1016.64 1016.26 1016.43 1016.75 1016.90 1017.11 1017.27 1017.36 1017.16 1017.20 1017.20 1017.26 1017.25 1017.26 1017.38 1017.51 1017.34 1017.22 1017.25 1017.36 1017.40 1017.44 1016.83 1016.35 1016.01 1015.75 1015.49 1015.47 1015.18 1014.85 1014.57 1014.48 1014.26 1013.92
1018.75 1019.44 1020.17 1020.50 1019.98 1018.64 1016.84 1015.85 1016.20 1016.56 1016.25 1016.33 1016.56 1016.72 1016.87 1017.12 1017.39 1017.46 1017.39 1017.39 1017.34 1017.25 1017.21 1017.17 1017.27 1017.37 1017.14 1017.00 1017.02 1017.13 1016.97 1016.33 1016.03 1015.86 1015.66 1015.33 1015.05 1014.93 1014.63 1014.56 1014.23 1014.00 1013.86 1013.55
1018.78 1018.84 1019.35 1019.78 1018.71 1017.73 1017.26 1016.91 1016.75 1016.49 1016.62 1016.89 1016.99 1017.23 1017.28 1017.53 1017.76 1017.83 1017.88 1017.72 1017.50 1017.37 1017.19 1017.06 1017.10 1017.26 1016.95 1016.68 1016.48 1016.53 1015.93 1015.70 1015.54 1015.36 1015.12 1014.93 1014.62 1014.36 1014.13 1014.13 1013.83 1013.59 1013.31 1013.11
1018.69 1018.48 1018.87 1018.96 1017.89 1017.21 1017.35 1016.90 1016.46 1016.37 1016.52 1016.89 1017.02 1017.24 1017.51 1017.85 1017.90 1017.97 1018.07 1018.05 1017.84 1017.61 1017.47 1017.29 1016.78 1016.69 1016.72 1016.33 1016.09 1015.84 1015.31 1015.08 1014.99 1014.86 1014.67 1014.45 1014.29 1014.02 1013.78 1013.54 1013.38 1013.21 1012.94 1012.70
1019.28 1018.58 1018.51 1018.38 1017.52 1017.12 1016.84 1016.56 1016.42 1016.43 1016.52 1016.93 1017.22 1017.42 1017.87 1018.05 1018.16 1018.26 1018.36 1018.17 1017.86 1017.73 1017.54 1017.17 1017.01 1016.53 1016.42 1016.09 1015.79 1015.26 1014.89 1014.68 1014.58 1014.49 1014.31 1014.13 1013.97 1013.76 1013.50 1013.21 1012.94 1012.66 1012.24 1011.98
1018.48 1017.98 1018.09 1017.86 1017.02 1016.84 1016.59 1016.23 1016.34 1016.61 1016.99 1017.32 1017.55 1018.01 1018.37 1018.52 1018.69 1018.61 1018.66 1018.54 1018.24 1017.87 1017.60 1017.22 1017.02 1016.64 1016.25 1015.88 1015.47 1014.91 1014.45 1014.33 1014.36 1014.35 1014.18 1014.01 1013.77 1013.47 1013.17 1012.81 1012.28 1011.77 1011.55 1011.17
Wind_Speed
3 4 5 9 8 9 5 6 12 16 16 4 14 9 14 9 5 5 8 13 11 12 12 10 7 7 5 5 7 7 4 7 6 5 5 3 4 3 4 5 8 7 7 8
6 5 12 7 8 7 9 12 13 12 11 4 7 9 7 4 4 7 10 15 16 11 11 12 9 11 8 5 4 3 8 5 5 8 7 4 4 4 2 2 4 7 9 8
6 9 5 5 9 11 14 6 9 10 10 3 3 7 6 9 3 3 11 6 8 17 16 13 14 9 10 13 9 8 5 4 4 3 3 4 3 0 1 2 1 3 8 8
6 5 4 9 8 6 5 10 12 13 2 7 4 8 3 6 8 7 8 16 11 11 12 16 14 12 12 9 12 12 9 8 5 4 3 4 5 4 3 3 3 4 2 3
10 7 8 7 7 10 9 10 9 13 6 1 2 4 10 4 11 16 8 10 12 12 14 14 14 13 11 12 11 11 12 11 8 11 8 5 4 3 3 4 4 6 3 5
7 7 2 1 4 6 8 9 7 2 2 6 6 7 5 6 9 14 2 8 10 13 14 13 12 13 12 10 10 11 14 9 7 12 12 9 8 6 5 4 4 3 1 4
5 6 4 12 9 9 11 8 6 7 4 8 3 5 5 2 11 16 17 13 10 5 10 9 11 10 9 10 8 10 12 9 7 10 12 8 8 6 6 5 3 4 3 1
4 7 8 8 4 4 5 5 5 3 4 11 7 6 8 6 12 19 17 15 18 15 6 8 10 9 8 8 8 8 11 10 10 10 9 6 7 5 4 5 3 3 2 4
5 5 12 9 3 3 5 2 2 6 4 5 7 5 6 2 15 18 19 19 19 13 15 14 14 13 9 8 7 8 11 10 9 8 7 7 6 6 6 6 2 1 3 3
2 5 4 6 5 4 5 3 2 4 3 6 7 5 6 7 10 16 18 15 15 14 16 13 12 11 6 6 9 13 10 10 8 8 7 5 7 7 6 5 7 6 5 7
2 3 7 6 4 6 5 4 5 1 3 4 2 7 2 8 12 17 19 12 12 13 9 14 12 9 8 9 13 12 11 10 8 7 7 8 7 7 7 6 6 6 5 6
1 4 1 5 5 6 5 5 4 5 3 4 5 5 9 4 8 14 20 22 14 10 7 7 10 8 7 7 8 11 9 9 7 7 8 8 7 7 7 7 7 5 6 6
2 2 4 9 6 3 4 3 3 4 3 5 4 5 7 10 5 8 14 15 14 12 10 9 8 8 4 5 8 7 7 6 7 7 8 9 8 9 10 8 7 7 5 6
7 3 7 6 7 5 6 6 10 8 4 4 6 7 5 13 4 7 9 12 13 12 12 8 9 3 4 5 6 7 6 5 5 6 6 7 8 7 7 8 8 7 6 4
4 5 3 4 6 6 11 9 9 8 11 5 10 9 10 13 10 11 9 7 9 9 5 8 6 6 5 6 7 5 5 5 5 7 7 7 7 7 7 7 10 11 7 5
4 3 2 3 6 6 10 14 15 11 15 8 6 9 7 7 7 8 14 11 7 13 7 7 6 7 5 4 4 3 5 5 4 5 6 7 7 8 8 9 8 8 9 7
1 3 2 5 4 7 6 3 7 5 7 4 1 7 3 11 12 12 13 13 10 8 6 8 6 5 4 2 2 4 3 1 2 3 5 6 6 6 7 7 9 10 8 7
5 3 3 4 4 2 7 12 8 12 8 11 4 7 12 14 8 9 7 10 8 7 7 5 4 4 4 3 6 4 4 4 4 4 5 5 5 5 5 5 6 7 6 7
10 5 1 3 3 7 8 4 5 3 6 7 10 10 10 11 12 7 5 5 7 6 5 5 4 2 2 4 5 4 6 6 6 6 6 7 5 6 6 7 7 6 5 6
5 4 6 3 2 5 6 7 4 3 0 4 6 5 5 3 5 3 1 4 6 5 3 5 6 5 6 6 6 4 6 7 7 7 7 7 6 6 6 7 7 4 4 6
2 2 7 3 3 7 7 9 5 2 8 3 5 6 4 5 4 3 5 5 2 2 4 2 1 4 5 5 3 4 5 7 8 7 7 7 7 7 7 7 4 5 6 5
4 4 3 2 2 7 5 3 1 5 1 6 3 2 6 6 6 3 3 2 0 2 4 5 2 4 5 4 2 6 6 7 6 7 7 7 7 6 6 7 7 6 6 6
0 6 4 6 6 3 3 1 5 3 0 2 6 3 6 5 4 3 1 3 3 5 2 2 1 3 6 7 5 6 7 6 6 6 7 6 7 6 6 6 7 5 5 5
5 3 3 3 5 4 3 3 1 6 7 4 5 5 5 4 3 4 4 4 5 4 5 5 4 3 5 7 6 7 7 7 6 7 7 6 5 6 6 4 4 4 5 5
5 2 3 4 7 5 4 7 4 6 7 6 5 4 4 5 5 4 3 5 4 4 5 4 6 5 6 6 7 7 7 6 6 6 5 5 4 5 6 5 5 5 6 6
5 7 3 6 8 6 6 5 6 6 5 5 5 7 6 5 4 5 4 4 4 6 6 6 6 6 7 9 7 9 7 5 3 5 5 5 4 5 4 4 5 8 12 13
Wind_Direction
305 73 244 244 216 229 240 253 267 278 280 280 289 285 275 223 158 207 123 135 131 123 143 132 141 169 171 224 235 229 246 170 166 165 161 233 191 192 189 180 188 193 198 193
11 263 253 242 259 232 248 256 267 277 273 228 305 303 302 276 183 176 141 140 137 128 127 138 120 118 111 133 113 190 224 214 167 181 180 169 201 249 253 202 188 186 191 196
181 248 291 233 267 270 269 249 275 247 292 222 325 320 337 313 201 154 136 118 121 137 135 113 102 90 85 82 78 64 49 168 210 153 93 85 127 162 306 315 251 215 194 184
249 270 272 296 291 262 260 257 264 271 288 276 129 275 292 278 311 36 151 154 147 142 120 121 114 95 84 69 73 65 57 62 67 59 174 174 193 202 235 218 245 223 223 180
254 285 297 298 275 317 289 279 268 277 251 258 236 98 277 3 360 356 278 145 131 122 114 108 102 102 94 84 72 75 64 51 72 78 59 53 58 30 35 11 3 254 135 207
243 280 51 11 324 10 327 349 341 316 128 256 237 137 11 10 330 314 179 93 93 96 89 84 86 91 85 83 79 80 71 53 39 71 66 65 56 41 49 23 23 340 164 265
333 3 5 18 3 351 39 41 346 333 341 248 354 83 84 66 49 34 41 29 19 46 80 86 88 81 65 59 61 77 77 59 47 59 66 54 65 59 54 39 20 356 350 273
47 336 23 358 15 322 330 120 144 216 341 310 287 181 160 138 85 63 44 41 46 23 6 73 76 75 73 64 58 55 66 61 43 49 46 26 33 48 59 33 32 10 342 306
29 301 337 22 351 68 311 333 184 143 161 325 287 106 167 157 73 63 48 36 44 40 48 51 52 53 53 42 40 63 54 50 36 39 38 35 29 28 24 11 357 357 316 301
306 299 314 339 4 57 97 333 5 25 170 208 269 237 152 166 109 90 60 42 27 1 26 35 40 59 56 57 38 52 52 50 29 19 20 15 6 12 14 14 12 360 344 352
83 106 301 11 344 272 6 65 73 137 176 226 128 292 349 168 154 128 115 75 36 325 38 23 1 38 22 48 64 50 37 37 30 16 7 16 357 354 353 3 359 355 342 342
232 126 322 285 324 107 130 158 140 158 196 310 298 247 1 251 158 144 135 130 146 214 26 6 327 337 15 38 41 59 50 39 16 5 7 4 355 355 348 332 329 343 347 334
165 27 15 348 329 348 86 198 169 114 95 205 165 279 350 300 154 137 143 163 179 179 185 188 234 269 69 62 63 66 47 27 17 12 5 351 349 352 338 327 311 315 335 341
89 137 159 199 224 248 294 282 192 175 176 209 222 253 200 262 194 155 167 175 180 191 199 198 223 194 90 68 75 56 31 25 360 345 354 341 336 331 326 319 318 301 301 313
98 187 215 246 277 299 301 316 299 206 231 192 270 210 242 201 198 190 179 191 191 211 166 161 153 110 89 58 45 49 48 23 351 346 337 321 311 318 325 335 335 331 295 285
4 272 277 262 274 330 316 295 282 274 257 272 249 205 218 150 142 188 185 186 116 126 128 130 100 83 83 76 66 23 4 4 14 3 338 326 339 346 335 337 334 342 333 307
225 149 53 270 320 329 313 271 287 69 13 291 117 220 128 80 99 111 105 121 118 115 104 86 106 122 114 56 21 4 349 11 16 333 312 314 324 340 339 341 340 337 339 324
190 136 143 258 3 260 238 308 105 95 23 1 45 81 107 109 102 93 92 107 111 107 91 85 61 27 6 8 14 1 4 330 315 310 303 298 306 317 322 332 340 334 325 330
186 135 237 146 196 285 308 359 4 358 3 0 73 88 106 119 88 49 116 119 131 127 123 149 163 160 318 311 320 345 327 318 320 321 318 314 321 322 319 322 315 303 314 322
135 137 152 140 156 239 248 295 333 61 52 306 89 83 100 160 70 232 172 108 98 115 141 164 181 174 171 202 200 236 286 301 294 289 281 286 293 300 292 285 293 268 279 288
62 61 182 153 207 282 258 291 310 168 232 162 126 135 124 100 168 163 86 66 60 16 316 244 262 218 210 230 231 254 263 263 258 268 270 269 268 267 271 279 263 276 285 276
182 145 208 98 136 279 356 326 200 235 196 129 108 96 91 100 110 108 101 105 202 302 301 297 263 231 270 278 258 272 274 262 259 260 265 265 267 270 276 269 277 274 274 278
261 173 183 171 226 219 332 193 218 125 144 81 105 96 102 73 32 15 299 315 321 313 300 301 186 293 298 294 276 281 271 277 281 284 275 276 278 269 268 271 278 286 278 271
332 156 184 74 263 195 271 244 321 146 127 137 118 96 79 90 20 334 18 27 19 15 1 327 346 328 308 300 295 271 288 288 286 285 280 283 284 289 290 283 268 270 274 270
220 334 236 252 282 318 216 198 196 147 126 115 95 107 86 56 25 58 348 335 335 329 320 318 320 331 305 302 300 297 291 288 281 280 281 282 277 284 289 273 255 260 254 232
197 211 163 234 240 190 242 207 169 141 134 131 105 72 69 69 39 22 4 355 355 344 313 345 336 317 320 315 311 301 299 292 287 309 305 296 290 282 279 283 294 252 254 266